Total_Precipitation_Accumulation
0.18 0.17 0.28 0.67 0.20 0.09 0.06 0.06 0.05 0.02 0.04 0.04 0.01 0.03 0.03 0.00 0.00 0.00 0.00 0.00 0.00 0.00 0.00 0.00 0.00 0.00 0.00 0.00 0.00 0.00 0.00 0.00 0.00 0.00 0.00 0.00 0.00 0.00 0.00 0.00 0.00 0.00 0.00 0.00 0.00 0.00 0.00 0.00 0.00 0.00 0.00 0.00 0.00 0.00 0.00 0.00 0.00 0.00 0.00 0.00 0.00 0.00 0.00 0.00 0.00 0.00 0.00 0.00 0.00 0.00 0.00 0.00 0.00 0.00 0.00 0.00 0.00 0.00 0.00 0.00 0.00 0.00 0.00 0.00 0.00
0.06 0.34 0.60 0.54 0.10 0.01 0.01 0.03 0.05 0.03 0.00 0.06 0.04 0.08 0.02 0.00 0.01 0.00 0.00 0.00 0.01 0.00 0.00 0.00 0.00 0.00 0.00 0.00 0.00 0.00 0.00 0.00 0.00 0.00 0.00 0.00 0.00 0.00 0.00 0.00 0.00 0.00 0.00 0.00 0.00 0.00 0.00 0.00 0.00 0.00 0.00 0.00 0.00 0.00 0.00 0.00 0.00 0.00 0.00 0.00 0.00 0.00 0.00 0.00 0.00 0.00 0.00 0.00 0.00 0.00 0.00 0.00 0.00 0.00 0.00 0.00 0.00 0.00 0.00 0.00 0.00 0.00 0.00 0.00 0.00
0.04 0.10 0.10 0.05 0.02 0.02 0.03 0.01 0.01 0.03 0.01 0.01 0.07 0.11 0.04 0.15 0.04 0.01 0.01 0.01 0.01 0.00 0.01 0.01 0.01 0.00 0.00 0.00 0.00 0.00 0.00 0.00 0.00 0.00 0.00 0.00 0.00 0.00 0.00 0.00 0.00 0.00 0.00 0.00 0.00 0.00 0.00 0.00 0.00 0.00 0.00 0.00 0.00 0.00 0.00 0.00 0.00 0.00 0.00 0.00 0.00 0.00 0.00 0.00 0.00 0.00 0.00 0.00 0.00 0.00 0.00 0.00 0.00 0.00 0.00 0.00 0.00 0.00 0.00 0.00 0.00 0.00 0.00 0.00 0.00
0.51 0.30 0.06 0.04 0.25 0.42 0.21 0.09 0.04 0.03 0.04 0.04 0.07 0.01 0.01 0.04 0.06 0.15 0.04 0.09 0.01 0.01 0.01 0.00 0.00 0.00 0.00 0.00 0.00 0.00 0.00 0.00 0.00 0.00 0.00 0.00 0.00 0.00 0.00 0.00 0.00 0.00 0.00 0.00 0.00 0.00 0.00 0.00 0.00 0.00 0.00 0.00 0.00 0.00 0.00 0.00 0.00 0.00 0.00 0.00 0.00 0.00 0.00 0.00 0.00 0.00 0.00 0.00 0.00 0.00 0.00 0.00 0.00 0.00 0.00 0.00 0.00 0.00 0.00 0.00 0.00 0.00 0.00 0.00 0.00
0.05 0.03 0.15 0.28 0.32 0.22 0.30 0.39 0.22 0.18 0.18 0.24 0.07 0.03 0.02 0.10 0.28 0.29 0.10 0.13 0.14 0.10 0.01 0.00 0.00 0.00 0.01 0.01 0.00 0.00 0.00 0.00 0.00 0.00 0.00 0.00 0.00 0.00 0.00 0.00 0.00 0.00 0.00 0.00 0.00 0.00 0.00 0.00 0.00 0.00 0.00 0.00 0.00 0.00 0.00 0.00 0.00 0.00 0.00 0.00 0.00 0.00 0.00 0.00 0.00 0.00 0.00 0.00 0.00 0.00 0.00 0.00 0.00 0.00 0.00 0.00 0.00 0.00 0.00 0.00 0.00 0.00 0.00 0.00 0.00
0.39 0.29 0.19 0.14 0.16 0.35 0.48 0.54 0.37 0.29 0.42 0.43 0.39 0.57 0.42 0.32 0.27 0.16 0.07 0.17 0.13 0.09 0.07 0.12 0.05 0.11 0.18 0.01 0.03 0.04 0.02 0.00 0.00 0.00 0.00 0.00 0.00 0.00 0.00 0.00 0.01 0.01 0.01 0.00 0.00 0.00 0.00 0.00 0.00 0.00 0.00 0.00 0.00 0.00 0.00 0.00 0.00 0.00 0.00 0.00 0.00 0.00 0.00 0.00 0.00 0.00 0.00 0.00 0.00 0.00 0.00 0.00 0.00 0.00 0.00 0.00 0.00 0.00 0.00 0.00 0.00 0.00 0.00 0.00 0.00
0.31 0.49 0.22 0.17 0.80 0.42 0.14 0.22 0.44 0.95 1.11 1.01 0.84 0.63 0.71 0.77 0.71 0.54 0.31 0.25 0.36 0.52 0.47 0.37 0.32 0.19 0.09 0.02 0.02 0.01 0.06 0.08 0.03 0.02 0.02 0.04 0.02 0.02 0.02 0.02 0.01 0.00 0.01 0.01 0.01 0.00 0.01 0.01 0.00 0.00 0.00 0.01 0.07 0.00 0.01 0.00 0.00 0.00 0.00 0.00 0.00 0.00 0.00 0.00 0.00 0.00 0.00 0.00 0.00 0.00 0.00 0.00 0.00 0.00 0.00 0.00 0.00 0.00 0.00 0.00 0.00 0.00 0.00 0.00 0.00
0.06 0.05 0.15 0.56 0.43 0.30 0.31 0.77 0.73 0.59 0.51 0.63 0.87 0.80 0.96 0.84 0.77 0.69 0.75 0.51 0.56 0.51 0.50 0.45 0.39 0.21 0.19 0.19 0.20 0.14 0.10 0.17 0.17 0.14 0.12 0.15 0.07 0.05 0.05 0.03 0.04 0.04 0.04 0.03 0.06 0.26 0.29 0.05 0.06 0.44 0.23 0.02 0.01 0.00 0.00 0.00 0.00 0.00 0.00 0.00 0.00 0.00 0.00 0.00 0.00 0.00 0.00 0.00 0.00 0.00 0.00 0.00 0.00 0.00 0.00 0.00 0.00 0.00 0.00 0.00 0.00 0.00 0.00 0.00 0.00
0.01 0.03 0.02 0.12 0.26 0.25 0.65 0.56 0.34 0.29 0.27 0.46 0.82 0.96 0.72 0.54 0.53 0.56 0.46 0.38 0.41 0.37 0.41 0.47 0.21 0.18 0.16 0.14 0.14 0.26 0.14 0.18 0.12 0.25 0.20 0.19 0.12 0.12 0.15 0.12 0.09 0.06 0.05 0.02 0.02 0.05 0.05 0.10 0.04 0.00 0.00 0.00 0.00 0.00 0.00 0.00 0.00 0.00 0.00 0.00 0.00 0.00 0.00 0.00 0.00 0.00 0.00 0.00 0.00 0.00 0.00 0.00 0.00 0.00 0.00 0.00 0.00 0.00 0.00 0.00 0.00 0.00 0.00 0.00 0.00
0.01 0.01 0.01 0.04 0.04 0.08 0.15 0.11 0.29 0.12 0.35 0.24 0.11 0.21 0.22 0.39 0.32 0.32 0.36 0.38 0.31 0.29 0.23 0.24 0.27 0.33 0.24 0.17 0.58 0.40 0.66 0.23 0.22 0.10 0.09 0.12 0.14 0.13 0.06 0.08 0.07 0.03 0.03 0.03 0.04 0.05 0.03 0.01 0.00 0.00 0.00 0.00 0.00 0.00 0.00 0.00 0.00 0.00 0.00 0.01 0.00 0.00 0.00 0.00 0.00 0.00 0.00 0.00 0.00 0.00 0.00 0.00 0.00 0.00 0.00 0.00 0.00 0.00 0.00 0.00 0.00 0.00 0.00 0.00 0.00
0.00 0.00 0.00 0.00 0.01 0.02 0.01 0.00 0.00 0.02 0.03 0.01 0.02 0.03 0.02 0.02 0.03 0.04 0.05 0.10 0.19 0.38 0.35 0.38 0.23 1.04 0.48 0.38 0.22 0.09 0.05 0.03 0.04 0.04 0.02 0.01 0.01 0.01 0.15 0.11 0.05 0.04 0.04 0.06 0.01 0.02 0.01 0.00 0.00 0.00 0.00 0.02 0.73 0.03 0.03 0.00 0.02 0.00 0.00 0.00 0.00 0.02 0.00 0.00 0.00 0.00 0.00 0.00 0.00 0.00 0.00 0.00 0.00 0.00 0.00 0.00 0.00 0.00 0.00 0.00 0.00 0.00 0.00 0.00 0.00
0.02 0.02 0.02 0.01 0.02 0.00 0.00 0.00 0.00 0.00 0.01 0.01 0.01 0.02 0.03 0.02 0.11 0.21 0.06 0.19 0.62 0.49 0.05 0.10 0.38 0.44 0.46 0.34 0.34 0.34 0.22 0.14 0.10 0.08 0.02 0.01 0.02 0.09 0.06 0.03 0.03 0.02 0.03 0.02 0.01 0.04 0.16 0.08 0.01 0.00 0.00 0.00 0.01 0.11 0.03 0.01 0.00 0.00 0.00 0.00 0.00 0.00 0.00 0.00 0.00 0.00 0.00 0.00 0.00 0.00 0.00 0.00 0.00 0.00 0.00 0.00 0.00 0.00 0.00 0.00 0.00 0.00 0.00 0.00 0.00
0.00 0.00 0.00 0.00 0.00 0.00 0.00 0.00 0.00 0.00 0.01 0.01 0.01 0.01 0.01 0.01 0.01 0.01 0.02 0.05 0.10 0.09 0.19 0.10 0.04 0.02 0.05 0.23 0.13 0.12 0.08 0.03 0.11 0.13 0.17 0.16 0.17 0.20 0.08 0.07 0.05 0.14 0.07 0.06 0.15 0.13 0.13 0.01 0.01 0.01 0.00 0.00 0.01 0.00 0.01 0.00 0.00 0.00 0.00 0.00 0.00 0.00 0.00 0.00 0.00 0.00 0.00 0.00 0.00 0.00 0.00 0.00 0.00 0.00 0.00 0.00 0.00 0.00 0.00 0.00 0.00 0.00 0.00 0.00 0.00
0.00 0.00 0.00 0.00 0.00 0.00 0.00 0.00 0.00 0.00 0.00 0.00 0.01 0.01 0.01 0.03 0.01 0.01 0.01 0.01 0.02 0.02 0.02 0.01 0.02 0.03 0.01 0.02 0.07 0.12 0.23 0.12 0.20 0.13 0.08 0.06 0.07 0.11 0.08 0.04 0.05 0.04 0.06 0.12 0.12 0.08 0.01 0.00 0.01 0.01 0.00 0.00 0.00 0.00 0.00 0.00 0.00 0.00 0.00 0.00 0.00 0.00 0.00 0.00 0.00 0.00 0.00 0.00 0.00 0.00 0.00 0.00 0.00 0.00 0.00 0.00 0.00 0.00 0.00 0.00 0.00 0.00 0.00 0.00 0.00
0.00 0.00 0.00 0.00 0.00 0.00 0.00 0.00 0.00 0.00 0.00 0.00 0.00 0.01 0.01 0.01 0.00 0.00 0.00 0.00 0.00 0.01 0.01 0.01 0.02 0.11 0.23 0.18 0.08 0.02 0.07 0.15 0.06 0.08 0.09 0.03 0.03 0.04 0.19 0.12 0.10 0.05 0.05 0.02 0.02 0.00 0.00 0.01 0.00 0.01 0.00 0.00 0.00 0.00 0.00 0.00 0.00 0.00 0.00 0.00 0.00 0.00 0.00 0.00 0.00 0.00 0.00 0.00 0.00 0.00 0.00 0.00 0.00 0.00 0.00 0.00 0.00 0.00 0.00 0.00 0.00 0.00 0.00 0.00 0.00
0.00 0.00 0.00 0.00 0.00 0.00 0.00 0.00 0.00 0.00 0.00 0.00 0.00 0.01 0.01 0.01 0.01 0.01 0.01 0.01 0.01 0.01 0.01 0.01 0.02 0.03 0.04 0.06 0.11 0.76 0.56 0.22 0.19 0.11 0.04 0.12 0.29 0.16 0.15 0.11 0.15 0.03 0.16 0.12 0.06 0.06 0.03 0.04 0.04 0.00 0.00 0.00 0.00 0.00 0.00 0.00 0.00 0.00 0.00 0.00 0.00 0.00 0.00 0.00 0.00 0.00 0.00 0.00 0.00 0.00 0.00 0.00 0.00 0.00 0.00 0.00 0.00 0.00 0.00 0.00 0.00 0.00 0.00 0.00 0.00
0.01 0.01 0.02 0.00 0.00 0.01 0.00 0.00 0.00 0.00 0.00 0.00 0.00 0.00 0.00 0.01 0.01 0.01 0.01 0.01 0.01 0.01 0.01 0.01 0.02 0.04 0.03 0.02 0.04 0.07 0.02 0.06 0.01 0.00 0.00 0.00 0.12 0.03 0.01 0.08 0.10 0.03 0.05 0.02 0.00 0.00 0.00 0.00 0.00 0.00 0.00 0.00 0.00 0.00 0.00 0.00 0.00 0.00 0.00 0.00 0.00 0.00 0.00 0.00 0.00 0.00 0.00 0.00 0.00 0.00 0.00 0.00 0.00 0.00 0.00 0.00 0.00 0.00 0.00 0.00 0.00 0.00 0.00 0.00 0.00
0.04 0.03 0.03 0.04 0.02 0.00 0.00 0.00 0.00 0.00 0.00 0.00 0.00 0.00 0.00 0.00 0.00 0.00 0.00 0.01 0.01 0.01 0.01 0.01 0.01 0.02 0.02 0.03 0.06 0.16 0.30 0.34 0.01 0.00 0.00 0.00 0.01 0.03 0.02 0.01 0.00 0.00 0.00 0.01 0.00 0.01 0.00 0.00 0.00 0.00 0.00 0.00 0.00 0.00 0.00 0.00 0.00 0.00 0.00 0.00 0.00 0.00 0.00 0.00 0.00 0.00 0.00 0.00 0.00 0.00 0.00 0.00 0.00 0.00 0.00 0.00 0.00 0.00 0.00 0.00 0.00 0.00 0.00 0.00 0.00
0.00 0.00 0.00 0.00 0.00 0.00 0.00 0.00 0.00 0.00 0.00 0.00 0.00 0.00 0.00 0.00 0.00 0.00 0.00 0.00 0.01 0.02 0.01 0.01 0.01 0.01 0.00 0.03 0.03 0.00 0.01 0.00 0.00 0.00 0.00 0.00 0.04 0.05 0.09 0.05 0.00 0.00 0.00 0.00 0.00 0.00 0.00 0.00 0.00 0.00 0.00 0.00 0.00 0.00 0.00 0.00 0.00 0.00 0.00 0.00 0.00 0.00 0.00 0.00 0.00 0.00 0.00 0.00 0.00 0.00 0.00 0.00 0.00 0.00 0.00 0.00 0.00 0.00 0.00 0.00 0.00 0.00 0.00 0.00 0.00
0.01 0.01 0.00 0.00 0.00 0.00 0.01 0.00 0.00 0.00 0.00 0.00 0.01 0.00 0.00 0.00 0.00 0.00 0.00 0.00 0.02 0.03 0.02 0.01 0.01 0.01 0.03 0.00 0.00 0.01 0.00 0.00 0.00 0.00 0.00 0.00 0.00 0.08 0.01 0.00 0.00 0.00 0.00 0.00 0.00 0.00 0.00 0.00 0.00 0.00 0.00 0.00 0.00 0.00 0.00 0.00 0.00 0.00 0.00 0.00 0.00 0.00 0.00 0.00 0.00 0.00 0.00 0.00 0.00 0.00 0.00 0.00 0.00 0.00 0.00 0.00 0.00 0.00 0.00 0.00 0.00 0.00 0.00 0.00 0.00
0.01 0.01 0.01 0.00 0.00 0.01 0.00 0.00 0.00 0.00 0.00 0.00 0.00 0.00 0.01 0.00 0.00 0.00 0.01 0.02 0.03 0.02 0.01 0.00 0.00 0.00 0.00 0.02 0.02 0.00 0.00 0.01 0.02 0.00 0.00 0.00 0.00 0.00 0.00 0.00 0.00 0.03 0.01 0.02 0.00 0.00 0.00 0.00 0.00 0.00 0.00 0.00 0.00 0.00 0.00 0.00 0.00 0.00 0.00 0.00 0.00 0.00 0.00 0.00 0.00 0.00 0.00 0.00 0.00 0.00 0.00 0.00 0.00 0.00 0.00 0.00 0.00 0.00 0.00 0.00 0.00 0.00 0.00 0.00 0.00
0.00 0.00 0.00 0.00 0.00 0.00 0.00 0.00 0.00 0.00 0.00 0.00 0.00 0.00 0.00 0.01 0.01 0.04 0.01 0.03 0.01 0.01 0.00 0.00 0.01 0.00 0.00 0.00 0.00 0.00 0.00 0.00 0.00 0.00 0.00 0.00 0.00 0.01 0.00 0.00 0.00 0.00 0.03 0.01 0.00 0.00 0.00 0.00 0.00 0.00 0.00 0.00 0.00 0.00 0.00 0.00 0.00 0.00 0.00 0.00 0.00 0.00 0.00 0.00 0.00 0.00 0.00 0.00 0.00 0.00 0.00 0.00 0.00 0.00 0.00 0.00 0.00 0.00 0.00 0.00 0.00 0.00 0.01 0.00 0.00
0.00 0.00 0.00 0.00 0.00 0.00 0.00 0.00 0.00 0.00 0.00 0.00 0.00 0.00 0.01 0.00 0.01 0.01 0.02 0.04 0.03 0.01 0.03 0.02 0.03 0.01 0.00 0.00 0.01 0.00 0.00 0.00 0.00 0.00 0.00 0.01 0.00 0.01 0.01 0.01 0.01 0.00 0.00 0.00 0.00 0.02 0.01 0.00 0.00 0.00 0.00 0.00 0.00 0.00 0.00 0.00 0.00 0.00 0.00 0.00 0.00 0.00 0.00 0.00 0.00 0.00 0.00 0.00 0.00 0.00 0.00 0.00 0.00 0.00 0.00 0.00 0.00 0.00 0.00 0.00 0.00 0.00 0.00 0.00 0.00
0.00 0.00 0.00 0.00 0.00 0.01 0.01 0.00 0.00 0.00 0.00 0.00 0.00 0.00 0.01 0.02 0.01 0.01 0.01 0.01 0.02 0.03 0.01 0.01 0.01 0.02 0.01 0.02 0.02 0.00 0.01 0.00 0.00 0.01 0.00 0.00 0.00 0.00 0.00 0.00 0.00 0.00 0.00 0.00 0.00 0.00 0.00 0.00 0.00 0.00 0.00 0.00 0.00 0.00 0.00 0.00 0.00 0.00 0.00 0.00 0.00 0.00 0.00 0.00 0.00 0.00 0.00 0.00 0.00 0.00 0.00 0.00 0.00 0.00 0.00 0.00 0.00 0.00 0.00 0.00 0.00 0.00 0.00 0.00 0.00
0.00 0.00 0.00 0.00 0.00 0.00 0.00 0.06 0.02 0.10 0.01 0.01 0.01 0.02 0.09 0.20 0.01 0.01 0.01 0.01 0.01 0.03 0.01 0.01 0.01 0.02 0.01 0.04 0.02 0.01 0.01 0.03 0.01 0.01 0.01 0.01 0.01 0.00 0.00 0.00 0.00 0.00 0.00 0.00 0.01 0.01 0.00 0.01 0.00 0.00 0.00 0.00 0.00 0.00 0.00 0.00 0.00 0.00 0.00 0.00 0.00 0.00 0.00 0.00 0.00 0.00 0.01 0.00 0.00 0.00 0.00 0.00 0.00 0.00 0.00 0.00 0.00 0.00 0.00 0.00 0.00 0.00 0.00 0.00 0.00
0.00 0.00 0.00 0.00 0.00 0.00 0.00 0.00 0.00 0.00 0.02 0.21 0.02 0.02 0.02 0.04 0.18 0.36 0.14 0.06 0.05 0.04 0.04 0.03 0.03 0.02 0.07 0.17 0.07 0.09 0.03 0.00 0.01 0.11 0.13 0.05 0.02 0.01 0.02 0.00 0.02 0.00 0.01 0.02 0.09 0.00 0.00 0.00 0.00 0.00 0.00 0.00 0.00 0.00 0.00 0.00 0.00 0.00 0.00 0.00 0.00 0.00 0.00 0.00 0.00 0.01 0.00 0.01 0.00 0.00 0.00 0.00 0.00 0.00 0.00 0.00 0.00 0.00 0.00 0.00 0.00 0.00 0.00 0.00 0.00
0.00 0.00 0.00 0.00 0.00 0.00 0.00 0.01 0.01 0.02 0.06 0.01 0.09 0.02 0.06 0.10 0.08 0.08 0.44 0.27 0.64 0.12 0.31 0.23 0.17 0.33 0.18 0.06 0.33 0.61 0.47 0.10 0.01 0.01 0.00 0.02 0.01 0.00 0.00 0.00 0.01 0.03 0.00 0.01 0.00 0.00 0.00 0.00 0.00 0.00 0.00 0.00 0.00 0.00 0.00 0.00 0.00 0.00 0.00 0.00 0.00 0.01 0.01 0.00 0.01 0.01 0.01 0.01 0.01 0.00 0.00 0.00 0.00 0.00 0.00 0.00 0.00 0.00 0.00 0.00 0.01 0.00 0.00 0.00 0.02
0.01 0.01 0.01 0.01 0.00 0.00 0.01 0.01 0.01 0.01 0.02 0.01 0.01 0.03 0.14 0.03 0.09 0.02 0.02 0.05 0.09 0.51 0.26 0.21 0.20 0.05 0.06 0.04 0.04 0.03 0.09 0.07 0.07 0.01 0.03 0.02 0.01 0.02 0.02 0.04 0.02 0.00 0.00 0.00 0.00 0.00 0.00 0.00 0.00 0.00 0.00 0.00 0.00 0.00 0.00 0.00 0.00 0.00 0.00 0.00 0.00 0.00 0.00 0.00 0.00 0.00 0.00 0.00 0.00 0.00 0.00 0.00 0.01 0.01 0.00 0.01 0.01 0.01 0.01 0.01 0.02 0.01 0.01 0.02 0.06
0.00 0.00 0.01 0.01 0.01 0.02 0.01 0.01 0.02 0.02 0.04 0.02 0.01 0.05 0.13 0.04 0.04 0.03 0.11 0.07 0.13 0.34 0.42 0.27 0.49 0.68 0.17 0.21 0.12 0.06 0.08 0.05 0.06 0.00 0.01 0.00 0.02 0.00 0.00 0.01 0.00 0.00 0.00 0.01 0.00 0.00 0.00 0.00 0.00 0.00 0.00 0.00 0.00 0.00 0.00 0.00 0.00 0.00 0.00 0.00 0.00 0.00 0.00 0.00 0.00 0.00 0.00 0.00 0.00 0.00 0.00 0.00 0.01 0.02 0.01 0.01 0.01 0.01 0.00 0.01 0.01 0.02 0.02 0.05 0.07
0.01 0.01 0.01 0.01 0.01 0.01 0.03 0.02 0.08 0.21 0.05 0.03 0.02 0.02 0.01 0.02 0.05 0.03 0.21 0.07 0.05 0.07 0.01 0.14 0.10 0.14 0.15 0.13 0.06 0.09 0.05 0.00 0.00 0.00 0.00 0.00 0.00 0.00 0.00 0.00 0.00 0.00 0.00 0.00 0.00 0.00 0.00 0.00 0.00 0.00 0.00 0.00 0.00 0.00 0.00 0.00 0.00 0.00 0.00 0.00 0.00 0.00 0.00 0.00 0.00 0.00 0.00 0.00 0.00 0.00 0.00 0.00 0.00 0.01 0.01 0.01 0.01 0.01 0.01 0.02 0.02 0.03 0.07 0.05 0.05
0.01 0.01 0.01 0.01 0.01 0.01 0.02 0.02 0.03 0.03 0.04 0.04 0.04 0.03 0.05 0.02 0.01 0.01 0.04 0.03 0.05 0.04 0.04 0.10 0.15 0.05 0.07 0.05 0.03 0.02 0.03 0.01 0.01 0.01 0.00 0.00 0.00 0.00 0.00 0.00 0.00 0.00 0.00 0.00 0.00 0.00 0.00 0.00 0.00 0.00 0.00 0.00 0.00 0.00 0.00 0.00 0.00 0.00 0.00 0.00 0.00 0.00 0.00 0.00 0.00 0.00 0.00 0.00 0.00 0.00 0.00 0.01 0.01 0.01 0.01 0.01 0.01 0.01 0.01 0.01 0.02 0.02 0.03 0.04 0.06
0.01 0.01 0.01 0.01 0.02 0.01 0.04 0.06 0.14 0.04 0.02 0.02 0.03 0.03 0.07 0.14 0.08 0.09 0.06 0.02 0.02 0.02 0.03 0.01 0.01 0.04 0.03 0.02 0.01 0.02 0.17 0.03 0.01 0.01 0.00 0.00 0.01 0.00 0.00 0.00 0.00 0.00 0.00 0.00 0.00 0.00 0.00 0.00 0.00 0.00 0.00 0.00 0.00 0.00 0.00 0.00 0.00 0.00 0.00 0.00 0.00 0.00 0.00 0.00 0.00 0.00 0.00 0.00 0.01 0.01 0.01 0.01 0.01 0.01 0.01 0.01 0.01 0.01 0.01 0.01 0.01 0.03 0.03 0.04 0.04
0.01 0.02 0.04 0.01 0.01 0.01 0.05 0.15 0.17 0.04 0.12 0.06 0.28 0.03 0.08 0.04 0.19 0.31 0.61 0.26 0.08 0.09 0.01 0.00 0.01 0.01 0.06 0.03 0.02 0.01 0.04 0.03 0.00 0.00 0.01 0.00 0.00 0.00 0.00 0.00 0.00 0.00 0.00 0.00 0.00 0.00 0.00 0.00 0.00 0.00 0.00 0.00 0.00 0.00 0.00 0.00 0.00 0.00 0.00 0.01 0.00 0.00 0.00 0.00 0.00 0.00 0.00 0.01 0.01 0.01 0.01 0.01 0.02 0.02 0.02 0.02 0.03 0.03 0.03 0.03 0.03 0.04 0.05 0.06 0.04
0.04 0.08 0.06 0.05 0.03 0.02 0.03 0.05 0.09 0.05 0.03 0.24 0.11 0.07 0.05 0.06 0.10 0.15 0.16 0.49 0.57 0.09 0.23 0.07 0.03 0.01 0.00 0.01 0.02 0.00 0.01 0.03 0.01 0.01 0.01 0.00 0.00 0.00 0.00 0.00 0.00 0.00 0.00 0.00 0.00 0.00 0.00 0.00 0.00 0.00 0.00 0.00 0.00 0.00 0.00 0.00 0.00 0.00 0.00 0.00 0.00 0.00 0.00 0.00 0.00 0.01 0.01 0.01 0.02 0.02 0.02 0.02 0.02 0.04 0.04 0.05 0.05 0.06 0.07 0.06 0.05 0.06 0.05 0.05 0.05
0.05 0.05 0.04 0.10 0.09 0.07 0.05 0.13 0.40 0.09 0.05 0.04 0.06 0.11 0.08 0.06 0.09 0.07 0.05 0.04 0.10 0.22 0.28 0.54 0.76 0.61 0.92 0.64 0.23 0.15 0.06 0.02 0.03 0.01 0.00 0.00 0.00 0.00 0.00 0.00 0.00 0.00 0.00 0.00 0.00 0.00 0.00 0.00 0.00 0.00 0.00 0.00 0.00 0.00 0.00 0.00 0.00 0.00 0.00 0.01 0.01 0.01 0.01 0.01 0.01 0.01 0.02 0.02 0.03 0.03 0.03 0.04 0.05 0.07 0.09 0.12 0.11 0.10 0.08 0.08 0.08 0.08 0.09 0.09 0.08
0.10 0.13 0.06 0.10 0.16 0.14 0.14 0.23 0.19 0.14 0.10 0.14 0.04 0.09 0.13 0.07 0.03 0.07 0.13 0.19 0.09 0.04 0.04 0.02 0.05 0.10 0.18 0.29 0.30 0.35 0.23 0.17 0.44 0.56 0.18 0.00 0.00 0.00 0.00 0.00 0.00 0.00 0.00 0.00 0.00 0.00 0.00 0.00 0.00 0.00 0.00 0.00 0.00 0.00 0.00 0.00 0.00 0.01 0.01 0.01 0.01 0.02 0.02 0.02 0.03 0.04 0.05 0.05 0.05 0.05 0.07 0.08 0.09 0.12 0.15 0.16 0.15 0.15 0.14 0.13 0.13 0.13 0.14 0.15 0.15
0.16 0.18 0.19 0.15 0.21 0.25 0.21 0.16 0.08 0.15 0.16 0.23 0.22 0.05 0.05 0.05 0.03 0.04 0.03 0.02 0.02 0.04 0.10 0.03 0.01 0.01 0.05 0.06 0.14 0.13 0.25 0.28 0.43 0.12 0.15 0.08 0.00 0.00 0.00 0.00 0.00 0.00 0.00 0.00 0.00 0.00 0.00 0.00 0.00 0.00 0.00 0.00 0.00 0.01 0.00 0.01 0.01 0.01 0.01 0.02 0.03 0.04 0.04 0.05 0.06 0.07 0.09 0.10 0.10 0.10 0.14 0.17 0.18 0.19 0.24 0.26 0.19 0.15 0.15 0.14 0.15 0.14 0.14 0.15 0.17
0.17 0.21 0.21 0.31 0.29 0.22 0.31 0.17 0.26 0.12 0.05 0.07 0.07 0.08 0.12 0.06 0.07 0.01 0.07 0.02 0.01 0.01 0.02 0.02 0.02 0.07 0.04 0.06 0.03 0.08 0.14 0.10 0.14 0.13 0.04 0.03 0.02 0.01 0.00 0.00 0.00 0.00 0.00 0.00 0.00 0.00 0.00 0.00 0.00 0.00 0.00 0.00 0.01 0.01 0.01 0.02 0.02 0.03 0.04 0.04 0.04 0.05 0.06 0.07 0.09 0.10 0.12 0.15 0.18 0.21 0.25 0.27 0.26 0.27 0.28 0.29 0.21 0.14 0.12 0.11 0.13 0.14 0.12 0.10 0.14
0.23 0.25 0.24 0.25 0.21 0.23 0.19 0.27 0.22 0.11 0.13 0.15 0.11 0.10 0.09 0.06 0.05 0.07 0.13 0.07 0.06 0.03 0.03 0.03 0.06 0.03 0.13 0.01 0.02 0.05 0.07 0.09 0.17 0.12 0.13 0.04 0.01 0.00 0.00 0.00 0.00 0.00 0.00 0.00 0.00 0.00 0.00 0.00 0.00 0.00 0.00 0.01 0.01 0.02 0.03 0.03 0.04 0.04 0.05 0.06 0.07 0.08 0.10 0.12 0.13 0.15 0.19 0.24 0.27 0.25 0.25 0.24 0.23 0.21 0.20 0.19 0.15 0.12 0.14 0.13 0.14 0.16 0.17 0.14 0.11
0.35 0.42 0.34 0.29 0.24 0.19 0.15 0.15 0.12 0.14 0.28 0.13 0.08 0.06 0.07 0.07 0.05 0.06 0.11 0.01 0.06 0.11 0.07 0.05 0.02 0.03 0.02 0.03 0.05 0.02 0.00 0.03 0.01 0.00 0.00 0.01 0.00 0.00 0.00 0.00 0.00 0.00 0.00 0.00 0.00 0.00 0.00 0.00 0.00 0.00 0.00 0.01 0.01 0.03 0.03 0.04 0.05 0.06 0.07 0.08 0.09 0.11 0.13 0.16 0.21 0.24 0.26 0.22 0.18 0.16 0.17 0.19 0.17 0.15 0.12 0.09 0.09 0.11 0.13 0.13 0.12 0.12 0.13 0.13 0.11
0.44 0.40 0.33 0.26 0.23 0.21 0.18 0.19 0.17 0.15 0.15 0.32 0.45 0.18 0.09 0.07 0.08 0.08 0.08 0.19 0.20 0.07 0.05 0.07 0.08 0.05 0.02 0.05 0.04 0.09 0.12 0.04 0.01 0.01 0.00 0.00 0.00 0.00 0.00 0.00 0.00 0.00 0.00 0.00 0.00 0.00 0.00 0.00 0.00 0.00 0.00 0.01 0.02 0.03 0.03 0.05 0.06 0.08 0.08 0.08 0.09 0.12 0.15 0.17 0.18 0.21 0.20 0.16 0.14 0.15 0.17 0.18 0.16 0.15 0.14 0.10 0.09 0.11 0.11 0.11 0.14 0.14 0.13 0.12 0.13
0.48 0.39 0.33 0.31 0.26 0.23 0.22 0.23 0.21 0.15 0.16 0.14 0.15 0.45 0.35 0.27 0.13 0.13 0.17 0.25 0.09 0.46 0.61 0.65 0.51 0.23 0.43 0.07 0.02 0.13 0.34 0.39 0.35 0.10 0.05 0.00 0.00 0.00 0.00 0.00 0.00 0.00 0.00 0.00 0.00 0.00 0.00 0.00 0.00 0.00 0.01 0.02 0.03 0.05 0.06 0.06 0.08 0.09 0.09 0.09 0.10 0.13 0.16 0.17 0.18 0.18 0.18 0.16 0.13 0.14 0.17 0.16 0.16 0.14 0.13 0.11 0.11 0.10 0.11 0.11 0.12 0.12 0.10 0.10 0.10
0.34 0.33 0.32 0.29 0.24 0.22 0.23 0.24 0.19 0.17 0.16 0.13 0.20 0.13 0.28 0.88 0.40 0.12 0.09 0.26 0.20 0.20 0.22 0.32 0.29 0.28 0.41 0.34 0.39 0.27 0.20 0.39 0.13 0.14 0.08 0.02 0.00 0.00 0.00 0.00 0.00 0.00 0.00 0.00 0.00 0.00 0.00 0.00 0.00 0.00 0.01 0.03 0.04 0.05 0.06 0.07 0.09 0.11 0.12 0.13 0.13 0.14 0.17 0.20 0.22 0.21 0.19 0.17 0.13 0.13 0.15 0.16 0.14 0.12 0.10 0.09 0.09 0.10 0.10 0.10 0.10 0.10 0.08 0.09 0.10
0.20 0.24 0.24 0.24 0.23 0.21 0.22 0.20 0.21 0.19 0.16 0.14 0.21 0.20 0.16 0.11 0.29 0.62 0.47 0.11 0.12 0.41 0.57 0.10 0.06 0.09 0.17 0.17 0.39 0.44 0.30 0.04 0.16 0.21 0.22 0.05 0.00 0.00 0.00 0.00 0.01 0.00 0.00 0.00 0.00 0.00 0.00 0.00 0.00 0.00 0.01 0.02 0.03 0.04 0.05 0.05 0.07 0.09 0.14 0.17 0.17 0.16 0.19 0.24 0.27 0.27 0.26 0.21 0.16 0.15 0.15 0.13 0.11 0.11 0.10 0.09 0.10 0.12 0.11 0.11 0.11 0.09 0.08 0.08 0.09
0.16 0.18 0.22 0.22 0.19 0.19 0.19 0.18 0.17 0.15 0.16 0.17 0.19 0.14 0.14 0.09 0.12 0.19 0.14 0.26 0.09 0.09 0.15 0.18 0.05 0.06 0.07 0.32 0.11 0.20 0.26 0.27 0.08 0.01 0.01 0.02 0.00 0.00 0.01 0.00 0.00 0.00 0.00 0.00 0.00 0.00 0.00 0.00 0.00 0.00 0.01 0.02 0.03 0.04 0.05 0.05 0.05 0.07 0.10 0.15 0.22 0.25 0.26 0.29 0.30 0.26 0.21 0.18 0.15 0.14 0.16 0.13 0.12 0.11 0.11 0.09 0.09 0.12 0.11 0.11 0.12 0.09 0.09 0.09 0.08
0.09 0.11 0.14 0.18 0.18 0.16 0.15 0.13 0.10 0.09 0.10 0.11 0.11 0.12 0.09 0.10 0.09 0.09 0.08 0.11 0.08 0.04 0.06 0.12 0.24 0.07 0.08 0.11 0.11 0.11 0.07 0.06 0.08 0.01 0.00 0.00 0.00 0.00 0.00 0.00 0.00 0.00 0.00 0.00 0.00 0.00 0.00 0.00 0.00 0.00 0.01 0.02 0.03 0.03 0.04 0.04 0.04 0.05 0.08 0.11 0.16 0.21 0.21 0.23 0.21 0.20 0.16 0.15 0.11 0.13 0.14 0.12 0.11 0.10 0.10 0.08 0.08 0.09 0.09 0.09 0.09 0.08 0.08 0.09 0.12
0.12 0.10 0.10 0.10 0.11 0.10 0.10 0.10 0.11 0.12 0.13 0.11 0.09 0.08 0.07 0.07 0.08 0.08 0.08 0.11 0.07 0.05 0.04 0.07 0.28 0.07 0.07 0.06 0.05 0.04 0.04 0.03 0.02 0.00 0.00 0.00 0.00 0.00 0.00 0.00 0.00 0.00 0.00 0.00 0.00 0.00 0.00 0.00 0.00 0.00 0.01 0.01 0.02 0.02 0.03 0.03 0.04 0.05 0.06 0.08 0.13 0.19 0.21 0.18 0.14 0.15 0.13 0.09 0.08 0.09 0.08 0.11 0.12 0.12 0.10 0.07 0.07 0.06 0.07 0.07 0.09 0.09 0.08 0.10 0.15
0.11 0.13 0.14 0.14 0.15 0.17 0.19 0.19 0.18 0.14 0.11 0.09 0.09 0.08 0.07 0.06 0.06 0.07 0.07 0.06 0.05 0.04 0.03 0.04 0.09 0.06 0.04 0.04 0.04 0.04 0.03 0.02 0.01 0.01 0.00 0.00 0.01 0.00 0.00 0.00 0.00 0.00 0.00 0.00 0.00 0.00 0.00 0.00 0.00 0.00 0.01 0.01 0.02 0.02 0.02 0.02 0.03 0.04 0.05 0.07 0.12 0.14 0.12 0.10 0.09 0.07 0.07 0.06 0.07 0.08 0.08 0.09 0.12 0.13 0.11 0.08 0.06 0.07 0.07 0.06 0.06 0.05 0.06 0.07 0.11
0.12 0.14 0.15 0.16 0.16 0.17 0.16 0.16 0.15 0.15 0.12 0.10 0.10 0.09 0.09 0.07 0.06 0.06 0.06 0.05 0.04 0.03 0.03 0.04 0.06 0.06 0.03 0.03 0.03 0.04 0.03 0.02 0.01 0.01 0.01 0.02 0.00 0.00 0.00 0.00 0.00 0.00 0.00 0.00 0.00 0.00 0.00 0.00 0.00 0.00 0.01 0.01 0.01 0.01 0.01 0.01 0.02 0.03 0.05 0.08 0.09 0.07 0.06 0.07 0.06 0.05 0.06 0.05 0.06 0.06 0.08 0.08 0.08 0.09 0.10 0.08 0.05 0.06 0.08 0.07 0.07 0.09 0.09 0.08 0.10
0.02 0.04 0.06 0.08 0.11 0.13 0.14 0.15 0.15 0.15 0.13 0.11 0.09 0.08 0.07 0.06 0.06 0.06 0.05 0.04 0.03 0.03 0.03 0.02 0.02 0.02 0.02 0.02 0.02 0.02 0.03 0.01 0.01 0.01 0.01 0.01 0.00 0.00 0.00 0.00 0.00 0.00 0.00 0.00 0.00 0.00 0.00 0.00 0.00 0.00 0.00 0.01 0.01 0.01 0.01 0.01 0.01 0.02 0.03 0.04 0.04 0.05 0.04 0.03 0.03 0.03 0.03 0.04 0.05 0.06 0.08 0.09 0.12 0.11 0.09 0.08 0.07 0.05 0.07 0.11 0.13 0.14 0.14 0.13 0.13
0.01 0.01 0.02 0.02 0.02 0.04 0.05 0.06 0.07 0.08 0.08 0.08 0.07 0.06 0.06 0.05 0.05 0.05 0.04 0.04 0.03 0.03 0.02 0.02 0.02 0.02 0.02 0.01 0.01 0.01 0.01 0.01 0.01 0.01 0.02 0.01 0.00 0.00 0.00 0.00 0.00 0.00 0.00 0.00 0.00 0.00 0.00 0.00 0.00 0.00 0.00 0.00 0.00 0.01 0.01 0.01 0.01 0.01 0.01 0.02 0.03 0.03 0.03 0.02 0.02 0.02 0.02 0.02 0.04 0.05 0.05 0.05 0.08 0.09 0.10 0.10 0.10 0.09 0.09 0.09 0.09 0.10 0.12 0.15 0.21